Location: Lublin
(51.2465°N, 22.5684°E)
Time: 19:05:56
(UTC+01:00)

ISS - Visible Passes

Search period start: 21 March 2019 00:00
Search period end: 31 March 2019 00:00
Orbit: 406 x 411 km, 51.6° (Epoch: 21 March)

Date Brightness Start Highest point End Pass type
(mag) Time Alt. Az. Time Alt. Az. Time Alt. Az.
21 Mar -1.4 18:55:56 10° SSE 18:56:04 10° SSE 18:56:04 10° SSE visible
22 Mar -2.2 19:39:02 10° SW 19:40:41 23° SSW 19:40:41 23° SSW visible
23 Mar -2.4 18:48:29 10° SSW 18:51:04 21° SE 18:52:19 17° ESE visible
23 Mar -1.5 20:23:59 10° WSW 20:25:05 19° WSW 20:25:05 19° WSW visible
24 Mar -3.7 19:32:58 10° SW 19:36:12 53° SSE 19:36:30 50° SE visible
25 Mar -3.1 18:42:06 10° SW 18:45:11 37° SSE 18:47:47 13° E visible
25 Mar -2.6 20:18:16 10° W 20:20:31 40° W 20:20:31 40° W visible
26 Mar -3.9 19:27:09 10° WSW 19:30:28 79° SSE 19:31:39 36° E visible
26 Mar -0.9 21:03:45 10° W 21:04:24 15° W 21:04:24 15° W visible
27 Mar -3.7 18:36:05 10° WSW 18:39:21 62° SSE 18:42:37 10° E visible
27 Mar -3.4 20:12:35 10° W 20:15:26 62° WNW 20:15:26 62° WNW visible
28 Mar -3.8 19:21:25 10° W 19:24:43 84° N 19:26:23 27° E visible
28 Mar -1.3 20:58:02 10° W 20:59:07 19° W 20:59:07 19° W visible
29 Mar -3.8 18:30:14 10° WSW 18:33:33 86° S 18:36:52 10° E visible
29 Mar -3.8 20:06:50 10° W 20:10:01 81° W 20:10:01 81° W visible
30 Mar -3.8 19:15:39 10° W 19:18:58 82° N 19:20:53 23° E visible
30 Mar -1.5 20:52:15 10° W 20:53:37 22° W 20:53:37 22° W visible
